Location: ??
(35.3149°N, 139.6204°E)
Time: 11:46:40
(UTC+00:00)

IRS-1D - Pass Details

Date: 03 August 2024
Orbit: 738 x 813 km, 98.8° (Epoch: 07 September)

Event Time Altitude Azimuth Distance (km) Brightness Sun altitude
Rises 19:10:26 0° 3° (N) 3,195 7.2 -8.6°
Reaches altitude 10° 19:12:51 10° 355° (N) 2,275 6.3 -8.2°
Maximum altitude 19:17:24 36° 290° (WNW) 1,180 4.2 -7.4°
Drops below altitude 10° 19:22:01 10° 224° (SW) 2,302 5.4 -6.5°
Enters shadow 19:23:18 - 219° (SW) 2,783 5.8 -6.3°
